Location: Hanover
(52.3667°N, 9.7167°E)
Time: 15:09:21
(UTC+02:00)

ARIANE 6 FM1 Upper Stage - Visible Passes

Search period start: 20 September 2024 00:00
Search period end: 30 September 2024 00:00
Orbit: 566 x 594 km, 62.0° (Epoch: 19 September)

Date Brightness Start Highest point End Pass type
(mag) Time Alt. Az. Time Alt. Az. Time Alt. Az.
20 Sep 5.0 02:56:52 23° ENE 02:56:52 23° ENE 02:59:04 10° E visible
20 Sep 2.7 04:33:16 35° NW 04:35:05 84° NE 04:39:28 10° SE visible
20 Sep 4.1 06:10:48 10° WNW 06:13:57 20° WSW 06:17:06 10° SSW visible
20 Sep 4.4 20:18:47 10° SSE 20:20:57 14° ESE 20:21:45 13° ESE visible
20 Sep 3.4 21:55:19 10° SW 21:58:11 41° SSW 21:58:11 41° SSW visible
21 Sep 5.4 03:03:23 14° E 03:03:23 14° E 03:04:08 10° E visible
21 Sep 2.6 04:39:50 70° SW 04:39:50 70° SW 04:44:08 10° SE visible
21 Sep 4.5 06:16:20 10° W 06:18:25 13° WSW 06:20:30 10° SW visible
21 Sep 4.0 20:22:15 10° SSE 20:25:24 20° ESE 20:27:56 13° E visible
21 Sep 2.7 22:00:00 10° SW 22:04:18 81° NW 22:04:20 80° NNW visible
21 Sep 5.7 23:40:25 10° WNW 23:40:43 11° WNW 23:40:43 11° WNW visible
22 Sep 4.3 04:46:53 23° SSE 04:46:53 23° SSE 04:48:38 10° SSE visible
22 Sep 3.6 20:26:11 10° S 20:29:54 29° SE 20:33:33 11° ENE visible
22 Sep 3.2 22:04:47 10° WSW 22:09:02 59° NW 22:09:54 48° NNE visible
22 Sep 5.6 23:45:29 10° WNW 23:46:16 14° WNW 23:46:16 14° WNW visible
23 Sep 3.1 20:30:24 10° SSW 20:34:27 42° SE 20:38:33 10° ENE visible
23 Sep 3.7 22:09:40 10° WSW 22:13:49 45° NNW 22:15:04 35° NNE visible
23 Sep 5.6 23:50:31 10° WNW 23:51:24 14° NW 23:51:24 14° NW visible
24 Sep 2.7 20:34:48 10° SSW 20:39:02 62° SE 20:43:20 10° NE visible
24 Sep 4.2 22:14:37 10° W 22:18:38 36° NNW 22:19:57 29° NNE visible
24 Sep 5.7 23:55:30 10° NW 23:56:16 13° NW 23:56:16 13° NW visible
25 Sep 2.7 20:39:22 10° SW 20:43:40 87° SE 20:48:02 10° NE visible
25 Sep 4.5 22:19:37 10° W 22:23:29 31° NNW 22:24:39 27° N visible
26 Sep 5.8 00:00:26 10° NW 00:00:57 12° NW 00:00:57 12° NW visible
26 Sep 3.0 20:44:04 10° WSW 20:48:21 69° NW 20:52:41 10° NE visible
26 Sep 4.6 22:24:38 10° WNW 22:28:21 27° NNW 22:29:13 25° N visible
27 Sep 5.9 00:05:16 10° NW 00:05:31 11° NW 00:05:31 11° NW visible
27 Sep 3.5 20:48:51 10° WSW 20:53:03 51° NNW 20:57:18 10° NE visible
27 Sep 4.7 22:29:39 10° WNW 22:33:14 24° N 22:33:42 24° N visible
28 Sep 4.0 20:53:44 10° W 20:57:48 40° NNW 21:01:50 11° NE visible
28 Sep 4.8 22:34:37 10° WNW 22:38:07 23° N 22:38:08 23° N visible
29 Sep 4.3 20:58:39 10° W 21:02:36 33° NNW 21:06:13 12° NE visible
29 Sep 4.9 22:39:31 10° NW 22:42:30 22° N 22:42:30 22° N visible
